Content
SEND FEEDBACK

Daily
Averages
Monthly
Summary
United States of America

VERNON, VERMONT


Home > North America > United States > Vermont
Elevation: 238 feet     Latitude: 42 46N     Longitude: 072 31W

WEATHER
 
SELECT A DAY
Number of Records: 446,114;   Date Range: 1/1/95 - 9/3/14
 
SHARE

PRINT THIS DATA

[ ← Previous Day ]
WEATHER ALMANAC - JULY 2, 2014
[ Next Day → ]
[ °C ]   °F
Weather ElementAverageHighLow
Temperature75 °F89.6 °F (12:55 pm)69.8 °F (2:15 am)
Dewpoint63 °F69.8 °F (2:55 pm)60.8 °F (1:15 am)
Humidity67 %78 % (6:55 pm)49 % (11:55 am)
Barometer29.89 in29.95 in (10:55 pm)29.82 in (12:35 am)
Wind Speed3.6 mph12.7 mph (1:55 pm)
Wind Gust20.7 mph (2:15 pm)
Weather ElementAverage
Visibility9.3 mi
Wind DirectionESE (105.1 °)

Weather ElementTotal
Precipitation2.46 in
Cooling Degree Days14.7 (Base 65)
Growing Degree Days29.7 (Base 50)
Averaged from 70 records on July 2, 2014
WEATHER CONDITIONS BREAKOUT
WIND DIRECTION BREAKOUT
WEATHER BY HOUR - JULY 2, 2014
[ °C ]   °F
Local TimeTemperatureDewpointHumidityBarometerVisibilityWind DirectionWind SpeedGust SpeedPrecipitationEventsConditions
12:35 AM73.4 °F62.6 °F69 %29.82 in10.0 miSouth (180°)6.9 mphClear
12:55 AM75.2 °F62.6 °F65 %29.82 in10.0 miCalmPartly Cloudy
1:15 AM73.4 °F60.8 °F65 %29.82 in10.0 miSW (230°)4.6 mphClear
1:35 AM71.6 °F60.8 °F69 %29.83 in10.0 miCalmClear
1:55 AM71.6 °F60.8 °F69 %29.83 in10.0 miCalmClear
2:15 AM69.8 °F60.8 °F73 %29.84 in10.0 miCalmClear
2:35 AM71.6 °F60.8 °F69 %29.85 in10.0 miCalmPartly Cloudy
2:55 AM71.6 °F60.8 °F69 %29.84 in10.0 miCalmClear
3:15 AM69.8 °F60.8 °F73 %29.85 in10.0 miCalmClear
3:35 AM69.8 °F60.8 °F73 %29.85 in10.0 miSouth (190°)3.5 mphPartly Cloudy
3:55 AM69.8 °F60.8 °F73 %29.86 in10.0 miSouth (180°)3.5 mphMostly Cloudy
4:15 AM69.8 °F60.8 °F73 %29.86 in10.0 miSSW (200°)3.5 mphMostly Cloudy
4:35 AM69.8 °F60.8 °F73 %29.86 in10.0 miSouth (190°)3.5 mphScattered Clouds
4:55 AM69.8 °F60.8 °F73 %29.86 in10.0 miSouth (190°)3.5 mphPartly Cloudy
5:15 AM71.6 °F60.8 °F69 %29.87 in10.0 miCalmScattered Clouds
5:35 AM69.8 °F60.8 °F73 %29.87 in10.0 miCalmMostly Cloudy
5:55 AM69.8 °F60.8 °F73 %29.87 in10.0 miCalmMostly Cloudy
6:15 AM69.8 °F60.8 °F73 %29.88 in10.0 miCalmPartly Cloudy
6:35 AM71.6 °F60.8 °F69 %29.88 in10.0 miCalmClear
6:55 AM71.6 °F60.8 °F69 %29.89 in10.0 miCalmClear
7:15 AM73.4 °F60.8 °F65 %29.88 in10.0 miSouth (190°)3.5 mphClear
7:35 AM75.2 °F60.8 °F61 %29.89 in10.0 miSouth (180°)4.6 mphClear
7:55 AM75.2 °F62.6 °F65 %29.89 in10.0 miSSW (200°)3.5 mphClear
8:15 AM75.2 °F62.6 °F65 %29.89 in10.0 miSSW (200°)4.6 mphClear
8:35 AM77.0 °F62.6 °F61 %29.89 in10.0 miWSW (250°)3.5 mphClear
8:55 AM78.8 °F62.6 °F57 %29.89 in10.0 miSouth (180°)3.5 mphClear
9:15 AM78.8 °F64.4 °F61 %29.89 in10.0 miSW (230°)8.1 mphClear
9:35 AM80.6 °F64.4 °F58 %29.88 in7.0 miCalmClear
9:55 AM80.6 °F64.4 °F58 %29.88 in10.0 miWSW (240°)8.1 mphClear
10:15 AM82.4 °F64.4 °F54 %29.89 in10.0 miSW (220°)5.8 mphClear
10:35 AM84.2 °F66.2 °F55 %29.89 in10.0 miSouth (190°)5.8 mphClear
10:55 AM84.2 °F66.2 °F55 %29.89 in10.0 miSW (220°)8.1 mphClear
11:15 AM86.0 °F66.2 °F51 %29.89 in10.0 miSW (220°)4.6 mphClear
11:35 AM86.0 °F66.2 °F51 %29.89 in10.0 miSSE (160°)9.2 mphMostly Cloudy
11:55 AM87.8 °F66.2 °F49 %29.88 in7.0 miSW (230°)6.9 mphMostly Cloudy
12:15 PM87.8 °F66.2 °F49 %29.89 in10.0 miSSW (200°)4.6 mphPartly Cloudy
12:35 PM87.8 °F68.0 °F52 %29.88 in10.0 miSouth (190°)6.9 mphScattered Clouds
12:55 PM89.6 °F68.0 °F49 %29.88 in9.0 miSouth (180°)8.1 mphMostly Cloudy
1:15 PM87.8 °F68.0 °F52 %29.86 in10.0 miSouth (190°)9.2 mphMostly Cloudy
1:35 PM89.6 °F68.0 °F49 %29.85 in10.0 miSouth (190°)11.5 mphMostly Cloudy
1:55 PM87.8 °F68.0 °F52 %29.84 in9.0 miSouth (180°)12.7 mph17.3 mphMostly Cloudy
2:15 PM87.8 °F66.2 °F49 %29.84 in9.0 miSouth (180°)11.5 mph20.7 mphScattered Clouds
2:35 PM84.2 °F66.2 °F55 %29.84 in10.0 miSouth (170°)3.5 mphScattered Clouds
2:55 PM80.6 °F69.8 °F70 %29.85 in8.0 miSouth (180°)5.8 mphPartly Cloudy
3:15 PM82.4 °F68.0 °F62 %29.85 in9.0 miSW (220°)10.4 mphThunderstormPartly Cloudy
3:35 PM80.6 °F66.2 °F61 %29.88 in5.0 miSW (220°)10.4 mphThunderstormThunderstorm
3:55 PM73.4 °F64.4 °F73 %29.90 in1.8 miNE (50°)8.1 mph0.37 inThunderstormThunderstorm
4:15 PM71.6 °F62.6 °F73 %29.93 in2.0 miNorth (10°)12.7 mph18.4 mph0.62 inThunderstormThunderstorm
4:35 PM69.8 °F60.8 °F73 %29.94 in1.8 miCalm1.14 inThunderstormThunderstorm
5:15 PM69.8 °F60.8 °F73 %29.93 in10.0 miSouth (170°)5.8 mph0.02 inMostly Cloudy
5:35 PM69.8 °F60.8 °F73 %29.93 in9.0 miCalm0.04 inThunderstormMostly Cloudy
5:55 PM69.8 °F60.8 °F73 %29.92 in10.0 miCalm0.07 inThunderstormOvercast
6:15 PM69.8 °F60.8 °F73 %29.92 in10.0 miCalm0.04 inOvercast
6:35 PM69.8 °F60.8 °F73 %29.91 in5.0 miCalm0.06 inThunderstormMostly Cloudy
6:55 PM69.8 °F62.6 °F78 %29.92 in10.0 miSouth (180°)5.8 mph0.07 inMostly Cloudy
7:15 PM69.8 °F62.6 °F78 %29.93 in10.0 miCalm0.01 inScattered Clouds
7:35 PM69.8 °F62.6 °F78 %29.92 in10.0 miCalm0.01 inPartly Cloudy
7:55 PM69.8 °F62.6 °F78 %29.92 in10.0 miCalm0.01 inMostly Cloudy
8:15 PM69.8 °F62.6 °F78 %29.91 in10.0 miCalmOvercast
8:35 PM69.8 °F62.6 °F78 %29.91 in10.0 miCalmOvercast
8:55 PM69.8 °F62.6 °F78 %29.92 in10.0 miCalmOvercast
9:15 PM69.8 °F62.6 °F78 %29.93 in10.0 miCalmOvercast
9:35 PM69.8 °F62.6 °F78 %29.93 in10.0 miCalmOvercast
9:55 PM69.8 °F62.6 °F78 %29.92 in10.0 miSouth (170°)4.6 mphOvercast
10:15 PM69.8 °F62.6 °F78 %29.93 in10.0 miCalmOvercast
10:35 PM69.8 °F60.8 °F73 %29.94 in8.0 miCalmOvercast
10:55 PM69.8 °F62.6 °F78 %29.95 in10.0 miCalmOvercast
11:15 PM69.8 °F60.8 °F73 %29.95 in10.0 miSW (230°)4.6 mphOvercast
11:35 PM69.8 °F60.8 °F73 %29.93 in10.0 miSouth (180°)4.6 mphMostly Cloudy
11:55 PM69.8 °F60.8 °F73 %29.94 in8.0 miCalmPartly Cloudy
Hourly data recorded from KEEN, located miles away from Vernon, Vermont







STORIES FROM OUR PARTNERS